Temperature
18 18 18 18 18 18 18 18 18 18 18 18 18 18 18 18 18 18 18 18 17 17 17 17 17 17 17 17 17 17 17 17 16 16 16 16 16 16 16 16 16 16 16
18 18 18 18 18 18 18 18 18 18 18 18 18 18 18 18 18 18 18 17 17 17 17 17 17 17 17 17 17 17 16 17 16 16 16 16 16 16 16 16 16 16 16
18 18 18 18 18 18 18 18 18 18 18 18 18 18 18 18 17 17 17 17 17 17 17 17 17 17 17 17 16 16 16 16 16 16 16 16 16 16 16 16 16 16 15
18 18 18 18 18 18 18 18 18 18 18 18 18 18 18 18 18 17 17 17 17 17 17 17 16 17 17 17 17 16 16 16 16 16 16 16 16 16 16 16 16 15 15
18 18 18 18 18 18 18 18 18 18 18 18 18 18 17 17 17 17 17 17 17 17 17 17 17 16 17 16 16 16 16 16 16 16 16 16 16 16 16 15 15 15 15
18 18 18 18 18 18 18 18 18 18 18 18 17 17 17 17 17 17 17 17 16 16 16 16 16 16 16 16 16 16 16 16 16 16 16 16 16 16 15 15 15 15 15
18 18 18 18 18 18 18 18 18 18 18 17 17 17 17 17 17 17 17 16 16 16 16 16 16 16 16 16 16 16 16 16 16 16 16 16 16 15 15 15 15 15 15
18 18 18 18 18 18 18 18 18 18 17 17 18 17 17 17 16 16 16 16 16 16 16 16 16 16 16 16 16 16 16 15 15 16 16 15 15 15 15 15 15 15 15
18 19 18 18 18 18 18 18 18 18 18 17 17 17 17 17 16 16 16 16 16 16 16 16 16 16 16 16 16 16 15 15 15 15 15 15 15 15 15 15 15 15 15
19 19 18 18 18 18 18 18 18 18 18 18 17 17 17 17 17 16 16 16 16 16 16 16 16 16 16 16 16 16 15 15 15 15 15 15 15 15 15 15 14 14 14
18 18 18 18 18 18 18 18 18 18 18 18 18 18 17 17 17 16 16 16 16 15 15 15 15 15 15 15 15 15 15 15 15 15 15 15 15 15 15 14 14 14 14
18 18 18 18 18 18 18 18 18 18 18 18 18 17 17 17 17 17 16 16 15 15 15 15 15 15 15 15 15 15 15 15 15 15 15 15 15 15 14 14 14 14 14
19 19 18 18 18 18 18 18 18 18 18 18 17 17 17 17 17 17 17 16 15 15 15 15 15 15 15 15 15 15 15 15 15 15 15 14 14 14 14 14 14 14 14
19 19 18 18 18 18 18 18 18 18 18 17 17 17 17 17 17 17 17 16 15 15 15 15 15 15 15 15 15 15 15 15 14 14 14 14 14 14 14 14 14 13 13
19 19 18 18 18 18 18 18 18 18 18 17 17 17 17 17 17 17 17 17 16 16 15 15 15 15 15 15 15 14 14 14 14 14 14 14 14 13 13 13 13 13 13
19 19 18 18 18 18 18 18 18 18 17 17 17 17 17 17 17 17 17 16 16 16 16 15 15 15 15 14 14 14 14 14 14 14 14 13 13 13 13 13 13 13 13
19 19 18 18 18 18 18 18 17 17 17 17 17 17 17 17 17 17 16 16 16 16 16 15 15 15 15 14 14 14 14 14 14 14 13 13 13 13 13 13 12 12 12
19 19 19 18 18 18 18 18 18 17 17 17 17 17 17 17 17 16 16 16 16 16 16 15 15 15 14 14 14 14 14 13 13 13 13 13 13 13 12 12 12 12 12
19 19 19 18 18 18 18 18 18 17 17 17 17 17 17 17 16 16 16 16 16 16 15 15 15 14 14 14 14 14 14 13 13 13 13 13 13 12 12 12 12 12 12
19 19 19 18 18 18 18 18 18 17 17 17 17 17 17 17 16 16 16 16 16 15 15 15 15 14 14 14 14 13 13 13 13 13 13 12 12 12 12 12 12 12 12
19 19 19 18 18 18 18 18 18 18 17 17 17 17 17 16 16 16 16 16 15 15 15 15 14 14 14 14 14 13 13 13 13 12 12 12 12 12 12 12 12 12 11
19 19 19 18 18 18 18 17 17 17 17 17 17 17 16 16 16 16 15 15 15 15 15 14 14 14 14 14 14 13 13 13 12 12 12 12 12 12 12 12 12 11 11
19 18 18 18 18 18 18 17 17 17 17 17 17 16 16 16 16 16 15 15 15 15 15 15 14 14 14 14 13 13 13 13 13 13 12 12 12 12 12 12 11 11 11
18 18 18 18 18 17 17 17 17 17 16 16 16 16 16 16 15 15 15 15 15 15 14 14 14 14 14 14 13 13 13 13 13 12 12 12 12 12 12 11 11 11 11
18 18 18 18 17 17 17 17 17 16 16 16 16 16 16 15 15 15 15 15 15 14 14 14 14 14 13 13 13 13 13 12 12 12 12 12 12 12 12 11 11 11 11
18 18 17 17 17 17 17 17 16 16 16 16 16 15 15 15 15 15 14 14 14 14 14 14 14 13 13 13 13 13 12 12 12 12 12 12 12 11 11 11 11 11 11
Wind_Speed
4 3 3 3 3 4 3 3 3 3 3 4 4 5 5 5 6 6 7 10 10 10 10 10 11 10 10 9 9 9 8 9 10 10 10 10 10 9 9 9 9 9 9
4 4 3 3 3 3 4 3 4 3 3 4 4 5 5 6 6 7 7 7 8 8 9 9 9 9 9 9 8 8 8 9 9 9 9 9 9 8 8 8 9 9 9
5 4 3 2 2 3 3 3 3 3 3 4 4 4 5 5 6 7 7 6 6 7 7 8 7 7 7 7 7 8 8 8 9 9 9 9 8 8 8 8 8 9 9
6 5 3 2 2 3 3 3 3 3 3 3 3 3 3 4 5 6 7 6 5 5 5 6 6 6 6 6 6 7 7 8 9 9 9 9 9 9 9 8 8 8 9
5 4 3 2 2 3 2 2 3 4 4 3 3 3 2 2 3 5 5 5 5 5 4 4 5 5 4 4 4 5 5 5 7 7 7 8 8 8 9 9 9 9 9
4 4 3 2 3 3 2 2 3 3 3 4 4 4 3 2 3 3 4 4 4 5 5 4 3 2 2 2 3 3 3 3 4 5 6 6 7 7 8 9 9 9 9
4 3 3 3 3 3 3 3 4 4 3 3 4 4 4 3 2 2 2 3 4 5 6 5 4 3 1 1 1 2 2 2 3 4 5 6 6 7 7 8 8 8 8
5 4 3 3 3 3 3 3 4 3 2 2 3 3 2 3 3 2 2 2 2 3 4 4 4 3 2 1 1 1 1 2 3 3 4 6 7 7 7 7 7 8 8
4 3 4 3 3 3 3 3 4 4 3 1 2 3 3 2 0 2 1 1 2 2 2 3 3 3 3 2 1 0 1 2 3 3 4 4 5 7 7 7 7 8 8
3 4 4 3 3 3 3 3 3 3 4 2 1 1 2 4 3 1 2 1 1 2 2 2 3 3 3 2 1 1 1 2 2 1 1 2 3 4 6 6 6 6 7
2 3 4 3 3 2 2 2 2 2 2 3 2 1 1 2 2 3 2 1 1 0 1 2 2 2 3 3 2 2 2 2 1 1 1 1 2 2 3 5 5 5 5
1 1 3 3 2 2 2 2 2 3 2 2 2 2 2 2 2 3 3 2 1 1 1 1 2 3 3 3 3 3 3 3 2 2 2 2 2 2 3 3 3 3 3
1 1 2 2 2 2 2 2 2 2 2 2 2 2 2 3 3 3 3 2 2 1 0 0 1 3 3 3 3 4 3 3 3 2 3 3 3 3 3 4 4 4 3
3 2 2 3 2 2 2 2 2 2 2 2 2 2 2 2 3 3 4 4 2 0 0 1 1 2 3 4 4 5 3 4 3 3 3 4 4 4 4 4 4 4 4
3 3 2 3 2 2 2 2 2 2 2 2 2 2 2 2 2 3 4 5 5 3 2 2 1 2 3 4 4 5 4 4 3 3 3 4 4 4 4 4 4 4 5
3 3 3 2 2 2 2 2 2 1 1 1 1 1 1 1 2 2 3 3 3 4 3 3 2 2 3 3 4 4 4 3 3 3 3 4 4 4 4 4 5 5 5
4 4 3 3 2 2 2 2 2 2 1 0 0 1 1 2 2 2 2 2 2 3 3 1 1 1 2 3 3 4 3 3 2 3 4 4 4 4 4 5 5 5 5
4 4 3 3 2 2 2 2 2 2 2 1 1 1 1 2 2 2 2 2 2 2 3 3 1 1 2 3 4 3 3 3 3 3 4 4 4 4 4 4 5 5 5
4 4 4 4 3 2 2 2 3 2 2 2 2 2 2 3 2 2 2 2 2 2 3 3 2 1 1 2 2 2 2 1 3 4 5 5 5 4 4 4 4 4 5
5 4 4 4 3 3 3 3 3 3 2 2 2 2 2 3 3 3 3 3 3 3 2 3 2 1 1 1 2 1 1 1 2 3 3 5 5 5 5 5 5 5 5
5 5 4 3 3 3 3 3 3 3 3 2 1 1 1 3 4 4 4 3 4 3 3 2 2 1 1 2 3 2 2 2 2 2 2 3 4 4 5 7 7 7 7
4 4 4 4 3 3 4 6 5 3 3 3 2 1 1 2 3 4 5 6 7 6 5 3 3 3 4 4 3 3 3 2 2 3 3 3 3 4 6 7 8 9 9
4 4 4 4 3 3 5 6 6 4 3 3 3 2 1 1 2 2 3 3 4 6 8 7 6 6 5 6 5 4 4 4 4 3 3 3 3 4 6 8 10 10 10
4 4 4 4 3 4 5 6 6 4 3 3 3 3 3 2 3 4 3 2 2 3 5 6 6 7 6 6 7 7 6 4 2 2 4 3 3 4 5 7 10 12 12
4 4 3 4 4 4 5 5 5 3 2 3 3 3 4 4 5 6 4 3 2 3 3 5 6 6 7 8 7 4 3 2 2 3 3 3 3 3 2 4 9 12 13
4 4 4 4 4 3 4 5 5 3 3 2 2 2 4 5 6 6 5 4 4 4 2 1 2 3 4 5 8 7 6 5 3 3 4 4 3 2 2 3 4 7 9
Wind_Direction
135 142 152 156 164 163 163 161 157 152 148 140 136 136 131 139 150 152 161 167 168 171 172 175 176 176 179 181 184 188 191 193 196 199 201 202 204 208 209 210 209 213 215
145 135 135 143 160 168 167 164 157 143 138 129 128 129 129 133 136 142 145 155 161 169 175 174 176 179 185 187 187 188 192 194 194 194 198 203 205 207 207 211 215 216 219
149 138 132 136 159 161 147 133 122 120 122 119 121 120 119 126 133 138 142 144 149 157 170 174 176 185 190 194 196 197 200 203 202 201 202 204 205 209 212 215 217 215 216
146 135 131 144 160 142 131 124 118 111 109 107 104 105 111 119 129 137 142 147 151 157 168 170 175 184 192 198 203 203 206 207 206 206 207 210 213 213 214 214 216 216 214
145 140 143 151 136 118 121 135 119 125 121 111 105 94 94 106 114 129 129 141 150 153 150 157 164 167 176 186 194 196 197 198 197 201 204 210 216 216 216 218 222 219 216
142 138 138 134 123 113 109 113 120 119 127 125 105 86 72 76 97 119 138 131 137 137 132 125 124 130 137 142 151 157 174 186 191 198 206 212 216 214 215 222 224 222 220
141 137 136 135 137 133 135 128 123 112 107 115 97 69 46 49 73 103 117 124 130 137 131 122 115 112 118 121 145 165 175 192 196 203 215 221 220 217 218 220 218 216 215
159 152 146 148 138 133 129 125 124 123 129 134 122 108 63 19 18 47 82 120 126 118 121 135 129 124 111 93 86 151 197 230 230 226 233 232 226 222 220 221 215 212 209
156 149 148 143 139 143 153 153 143 138 153 186 156 142 149 190 281 3 32 95 122 129 131 121 131 139 136 107 93 170 219 239 248 251 243 239 234 221 216 215 213 210 210
157 152 144 144 142 142 151 165 153 152 151 181 228 155 150 150 151 149 349 358 112 135 156 145 135 140 145 134 148 165 219 236 234 241 229 226 220 216 212 210 212 212 211
145 144 144 142 139 143 155 147 139 147 157 167 180 149 103 92 122 146 183 266 357 303 168 159 139 138 157 155 148 139 138 132 128 115 102 144 185 194 189 196 204 202 202
123 135 145 143 144 146 159 166 160 154 158 159 162 154 157 155 171 156 172 186 197 264 205 180 159 148 160 161 149 136 133 128 118 98 90 87 101 123 142 151 151 154 161
176 194 169 161 161 171 173 169 161 173 172 168 174 179 181 184 166 153 148 160 171 221 200 259 211 167 163 157 156 153 141 133 125 103 95 88 93 106 118 122 118 118 123
190 186 173 168 165 166 171 158 157 187 176 183 192 185 186 197 167 160 159 154 149 204 228 234 265 192 168 162 164 158 147 136 129 113 109 107 110 112 116 117 118 120 122
183 177 169 167 169 166 165 153 150 176 165 186 198 195 197 201 177 170 164 162 159 177 219 221 217 213 178 168 170 165 165 159 150 136 130 126 124 125 120 119 121 120 115
181 164 161 163 164 161 151 141 153 158 137 196 188 169 185 184 174 171 171 172 163 164 189 213 210 196 182 166 168 164 171 167 170 164 151 142 132 127 126 122 116 115 116
167 169 167 159 150 146 144 138 151 151 146 167 131 140 166 162 165 172 164 157 149 145 158 210 189 163 162 164 157 163 156 153 173 176 172 159 152 148 140 132 128 127 133
168 171 162 157 159 154 148 150 159 146 146 157 156 131 156 140 144 156 146 154 164 154 151 167 188 166 184 178 166 172 173 172 183 190 178 171 170 169 161 153 148 149 153
168 164 156 162 169 163 156 164 156 148 151 158 152 152 157 128 140 147 149 155 161 148 137 151 176 191 181 165 150 193 193 186 197 202 197 195 190 186 184 177 172 169 170
167 166 167 174 176 172 173 173 154 141 134 133 140 151 161 157 168 165 156 157 148 132 130 144 155 183 192 179 155 176 204 224 218 202 202 204 205 205 205 203 200 192 193
174 172 170 180 184 179 191 176 162 153 146 136 122 138 160 161 163 164 153 155 147 144 147 147 161 159 195 178 198 190 194 212 240 214 202 218 209 218 222 223 218 215 213
172 166 174 185 194 205 191 179 171 166 165 163 174 204 201 154 162 162 160 160 160 161 170 170 183 197 213 206 195 186 174 165 246 230 182 230 202 224 229 224 227 222 221
175 175 184 179 190 206 188 180 177 166 168 179 186 193 210 199 172 166 173 167 186 191 182 180 190 209 207 204 189 194 197 196 217 209 174 227 220 230 233 235 232 228 226
180 187 192 187 195 217 198 185 178 168 173 188 192 193 195 215 201 179 171 171 211 225 216 204 205 213 210 202 196 199 204 211 238 209 170 207 222 230 236 232 232 229 227
185 189 183 184 195 217 198 186 171 162 178 204 209 200 191 203 216 191 176 192 230 266 247 214 209 211 209 201 188 165 165 171 231 237 197 189 215 227 236 238 232 229 224
185 183 187 190 191 200 190 179 172 173 191 217 241 237 215 210 209 195 188 190 217 244 237 252 241 241 225 212 197 190 188 192 205 232 212 187 195 169 249 253 233 228 225
Height
1533 1533 1534 1536 1537 1538 1540 1541 1542 1543 1543 1544 1545 1545 1546 1546 1547 1548 1548 1549 1549 1549 1550 1551 1551 1552 1552 1553 1553 1554 1555 1555 1556 1556 1557 1558 1559 1559 1560 1561 1561 1562 1562
1534 1535 1536 1537 1538 1540 1541 1542 1543 1543 1544 1545 1545 1546 1546 1547 1547 1548 1548 1549 1549 1549 1550 1550 1551 1551 1552 1552 1552 1553 1553 1554 1555 1555 1556 1556 1557 1558 1558 1559 1559 1560 1561
1536 1537 1537 1538 1539 1540 1541 1542 1543 1544 1545 1545 1545 1546 1547 1547 1548 1548 1549 1549 1549 1549 1549 1549 1550 1550 1551 1551 1551 1551 1552 1553 1553 1554 1554 1555 1555 1556 1556 1557 1557 1558 1558
1538 1538 1539 1540 1540 1541 1542 1543 1543 1544 1545 1545 1546 1547 1547 1548 1548 1548 1548 1549 1549 1549 1549 1549 1549 1549 1550 1550 1550 1550 1551 1551 1552 1552 1553 1553 1553 1554 1554 1555 1555 1556 1556
1539 1539 1540 1541 1541 1542 1542 1543 1544 1544 1545 1546 1546 1547 1548 1548 1548 1548 1548 1548 1549 1549 1549 1549 1549 1549 1549 1549 1549 1549 1549 1550 1550 1550 1551 1551 1551 1552 1552 1553 1553 1553 1554
1540 1540 1541 1542 1542 1542 1543 1543 1544 1544 1545 1546 1546 1547 1548 1548 1548 1548 1548 1548 1549 1549 1549 1549 1549 1548 1548 1548 1548 1548 1548 1548 1548 1548 1549 1549 1549 1549 1550 1550 1551 1551 1551
1541 1541 1541 1542 1542 1543 1543 1543 1544 1544 1545 1546 1546 1547 1548 1548 1548 1549 1549 1549 1549 1549 1549 1549 1548 1548 1548 1548 1547 1547 1546 1546 1546 1547 1547 1547 1547 1547 1547 1548 1548 1548 1549
1541 1541 1541 1542 1542 1543 1543 1544 1544 1544 1545 1546 1546 1546 1548 1550 1549 1549 1549 1549 1549 1548 1548 1548 1548 1548 1547 1547 1546 1546 1545 1545 1545 1545 1545 1545 1545 1545 1545 1545 1545 1545 1546
1541 1541 1541 1542 1542 1543 1543 1544 1544 1545 1545 1546 1546 1547 1547 1547 1548 1549 1548 1549 1548 1548 1548 1547 1547 1547 1546 1546 1545 1545 1544 1544 1544 1543 1543 1542 1542 1542 1542 1542 1543 1543 1543
1540 1541 1541 1541 1542 1542 1543 1543 1544 1544 1545 1545 1545 1546 1546 1546 1547 1548 1548 1548 1548 1548 1547 1547 1546 1546 1545 1545 1544 1544 1543 1543 1542 1542 1541 1541 1540 1540 1540 1540 1541 1541 1541
1540 1540 1541 1541 1542 1542 1543 1543 1543 1544 1544 1544 1545 1545 1545 1545 1545 1546 1546 1547 1547 1547 1547 1546 1546 1545 1545 1544 1543 1543 1542 1542 1541 1540 1540 1539 1539 1538 1538 1538 1539 1539 1539
1540 1540 1541 1541 1541 1542 1542 1543 1543 1543 1543 1544 1544 1544 1544 1544 1544 1544 1544 1545 1545 1546 1546 1545 1545 1544 1544 1543 1543 1542 1542 1541 1540 1540 1539 1538 1537 1537 1537 1537 1537 1537 1537
1539 1540 1540 1540 1541 1541 1542 1542 1542 1542 1542 1543 1543 1543 1543 1543 1543 1543 1543 1543 1544 1544 1544 1544 1544 1544 1543 1543 1542 1542 1541 1540 1540 1539 1538 1537 1537 1536 1536 1536 1536 1536 1536
1539 1539 1540 1540 1540 1541 1541 1541 1541 1541 1541 1541 1541 1541 1541 1541 1541 1541 1541 1542 1542 1543 1542 1542 1543 1543 1542 1542 1542 1541 1540 1540 1539 1538 1538 1537 1536 1536 1535 1535 1535 1535 1534
1538 1539 1539 1539 1540 1540 1540 1540 1540 1540 1540 1540 1540 1539 1539 1539 1539 1539 1540 1540 1541 1540 1540 1540 1541 1541 1541 1541 1541 1541 1540 1539 1539 1538 1537 1537 1536 1535 1535 1534 1534 1534 1533
1538 1538 1538 1539 1539 1539 1539 1539 1539 1539 1539 1538 1538 1538 1537 1537 1537 1538 1538 1539 1539 1539 1538 1539 1539 1540 1540 1540 1540 1540 1539 1539 1538 1538 1537 1536 1536 1535 1534 1534 1533 1533 1533
1537 1538 1538 1538 1538 1538 1538 1538 1538 1538 1538 1537 1537 1536 1536 1536 1536 1536 1536 1537 1537 1537 1537 1537 1538 1538 1538 1538 1538 1538 1538 1538 1538 1537 1537 1536 1535 1535 1534 1533 1533 1532 1532
1536 1537 1537 1537 1537 1537 1537 1537 1537 1537 1536 1536 1536 1535 1535 1534 1534 1534 1535 1535 1535 1536 1536 1535 1536 1536 1537 1537 1537 1537 1537 1537 1537 1537 1536 1535 1535 1534 1534 1533 1532 1532 1531
1534 1535 1535 1536 1536 1536 1536 1536 1536 1535 1535 1535 1535 1534 1534 1533 1533 1533 1533 1533 1534 1534 1534 1534 1534 1535 1535 1535 1535 1536 1536 1536 1536 1535 1535 1535 1534 1534 1533 1533 1532 1531 1531
1532 1533 1534 1534 1534 1535 1535 1535 1534 1534 1534 1534 1533 1533 1533 1532 1532 1531 1531 1532 1532 1533 1533 1533 1533 1533 1533 1533 1534 1533 1533 1534 1534 1534 1534 1533 1533 1533 1532 1532 1531 1530 1529
1530 1531 1532 1532 1533 1533 1533 1533 1533 1533 1532 1532 1532 1532 1532 1531 1531 1531 1530 1531 1531 1531 1531 1531 1531 1531 1531 1531 1531 1532 1532 1532 1532 1532 1532 1532 1531 1531 1530 1530 1530 1529 1528
1528 1529 1529 1530 1531 1531 1531 1532 1532 1532 1531 1531 1531 1531 1530 1530 1530 1529 1529 1529 1529 1529 1529 1529 1529 1529 1529 1530 1530 1530 1530 1530 1530 1531 1530 1530 1530 1529 1529 1528 1528 1528 1527
1526 1526 1527 1528 1528 1529 1529 1530 1530 1530 1530 1530 1529 1529 1529 1528 1528 1528 1528 1527 1527 1527 1527 1527 1527 1527 1527 1527 1528 1528 1527 1527 1527 1528 1528 1527 1527 1527 1527 1526 1526 1526 1525
1523 1524 1525 1526 1526 1527 1527 1528 1528 1528 1528 1527 1528 1527 1527 1526 1526 1526 1526 1525 1525 1525 1525 1525 1525 1525 1525 1525 1525 1525 1525 1525 1525 1525 1525 1524 1524 1524 1524 1524 1523 1523 1522
1520 1521 1522 1523 1523 1524 1524 1525 1525 1525 1525 1525 1525 1525 1525 1524 1524 1524 1523 1523 1522 1522 1522 1522 1522 1522 1522 1522 1522 1522 1522 1521 1520 1521 1521 1521 1520 1520 1521 1520 1520 1520 1519
1517 1518 1519 1519 1520 1521 1521 1522 1522 1522 1522 1522 1522 1522 1522 1521 1521 1521 1520 1520 1519 1519 1519 1519 1519 1519 1519 1519 1519 1518 1518 1518 1517 1517 1517 1518 1517 1517 1517 1517 1517 1517 1516